Total_Precipitation_Accumulation
0.03 0.09 0.20 0.36 0.57 0.81 0.74 0.60 0.47 0.33 0.24 0.18 0.12 0.07 0.05 0.04 0.03 0.03 0.04 0.05 0.05 0.06 0.07 0.06 0.06 0.06 0.06 0.06 0.05 0.05 0.05 0.04 0.03 0.02 0.02 0.01 0.01 0.02 0.01 0.01 0.01 0.01 0.01
0.04 0.08 0.14 0.22 0.31 0.45 0.56 0.57 0.50 0.39 0.30 0.24 0.16 0.13 0.10 0.08 0.09 0.11 0.14 0.12 0.12 0.10 0.09 0.08 0.05 0.05 0.04 0.03 0.03 0.03 0.02 0.01 0.01 0.01 0.01 0.00 0.00 0.00 0.00 0.00 0.00 0.00 0.00
0.05 0.07 0.09 0.14 0.22 0.33 0.48 0.52 0.43 0.34 0.27 0.23 0.20 0.19 0.16 0.15 0.17 0.20 0.21 0.17 0.15 0.12 0.09 0.06 0.03 0.02 0.01 0.01 0.01 0.01 0.01 0.01 0.01 0.01 0.01 0.01 0.01 0.00 0.00 0.00 0.00 0.00 0.00
0.04 0.06 0.08 0.13 0.21 0.32 0.39 0.40 0.32 0.24 0.21 0.19 0.18 0.18 0.19 0.20 0.20 0.15 0.15 0.12 0.07 0.05 0.03 0.02 0.01 0.01 0.00 0.00 0.00 0.01 0.01 0.01 0.00 0.00 0.01 0.01 0.01 0.02 0.01 0.00 0.00 0.00 0.00
0.03 0.06 0.09 0.13 0.20 0.26 0.28 0.27 0.22 0.19 0.15 0.13 0.12 0.14 0.13 0.12 0.07 0.04 0.03 0.02 0.01 0.01 0.00 0.00 0.01 0.00 0.00 0.00 0.00 0.00 0.00 0.00 0.00 0.00 0.01 0.01 0.01 0.02 0.04 0.02 0.01 0.00 0.00
0.03 0.05 0.07 0.10 0.14 0.15 0.16 0.15 0.14 0.13 0.11 0.09 0.08 0.07 0.04 0.02 0.01 0.00 0.00 0.00 0.00 0.00 0.00 0.00 0.00 0.00 0.00 0.00 0.00 0.00 0.01 0.01 0.01 0.02 0.02 0.02 0.03 0.03 0.04 0.05 0.03 0.01 0.00
0.03 0.04 0.07 0.08 0.10 0.10 0.10 0.10 0.09 0.08 0.05 0.04 0.03 0.02 0.01 0.00 0.00 0.00 0.00 0.00 0.00 0.00 0.00 0.00 0.00 0.00 0.00 0.00 0.01 0.01 0.01 0.02 0.03 0.03 0.03 0.04 0.04 0.05 0.07 0.09 0.07 0.04 0.01
0.02 0.04 0.07 0.07 0.07 0.07 0.08 0.07 0.06 0.05 0.03 0.02 0.01 0.01 0.00 0.00 0.00 0.00 0.00 0.00 0.00 0.00 0.00 0.00 0.00 0.00 0.01 0.01 0.02 0.02 0.02 0.03 0.04 0.04 0.06 0.06 0.06 0.07 0.10 0.13 0.16 0.13 0.07
0.04 0.05 0.06 0.06 0.06 0.06 0.06 0.05 0.04 0.03 0.02 0.01 0.00 0.00 0.00 0.00 0.00 0.00 0.01 0.01 0.01 0.00 0.00 0.01 0.01 0.02 0.03 0.03 0.04 0.05 0.05 0.06 0.07 0.07 0.07 0.07 0.07 0.07 0.08 0.10 0.15 0.21 0.18
0.05 0.07 0.07 0.07 0.06 0.06 0.06 0.05 0.03 0.02 0.01 0.01 0.00 0.00 0.00 0.00 0.01 0.01 0.01 0.01 0.02 0.01 0.02 0.02 0.03 0.04 0.04 0.05 0.06 0.07 0.07 0.09 0.09 0.08 0.07 0.07 0.07 0.09 0.10 0.12 0.14 0.21 0.26
0.06 0.08 0.07 0.06 0.05 0.05 0.05 0.04 0.03 0.02 0.01 0.01 0.01 0.01 0.01 0.01 0.01 0.01 0.02 0.02 0.02 0.03 0.04 0.04 0.04 0.04 0.05 0.06 0.07 0.07 0.07 0.07 0.06 0.06 0.07 0.07 0.07 0.09 0.10 0.13 0.18 0.22 0.29
0.07 0.07 0.06 0.05 0.05 0.05 0.05 0.04 0.04 0.03 0.03 0.03 0.02 0.01 0.01 0.01 0.02 0.02 0.02 0.03 0.04 0.04 0.05 0.05 0.05 0.05 0.05 0.06 0.07 0.07 0.06 0.06 0.06 0.06 0.07 0.06 0.07 0.08 0.10 0.14 0.16 0.19 0.24
0.06 0.06 0.06 0.06 0.06 0.07 0.08 0.07 0.06 0.05 0.03 0.02 0.01 0.01 0.01 0.02 0.02 0.03 0.03 0.04 0.05 0.05 0.06 0.06 0.06 0.05 0.05 0.06 0.07 0.06 0.06 0.06 0.06 0.07 0.08 0.08 0.10 0.11 0.12 0.16 0.18 0.20 0.22
0.09 0.10 0.10 0.09 0.08 0.09 0.09 0.07 0.06 0.04 0.02 0.01 0.00 0.01 0.01 0.02 0.03 0.04 0.05 0.05 0.06 0.06 0.06 0.05 0.04 0.05 0.06 0.05 0.04 0.04 0.04 0.04 0.05 0.06 0.09 0.10 0.13 0.15 0.16 0.17 0.19 0.24 0.27
0.13 0.14 0.14 0.12 0.11 0.10 0.08 0.07 0.05 0.03 0.02 0.01 0.01 0.01 0.02 0.04 0.05 0.06 0.07 0.07 0.06 0.04 0.04 0.03 0.04 0.06 0.05 0.03 0.02 0.01 0.02 0.03 0.05 0.06 0.09 0.09 0.12 0.16 0.17 0.18 0.23 0.30 0.33
0.17 0.18 0.17 0.14 0.13 0.12 0.12 0.09 0.05 0.03 0.02 0.02 0.02 0.03 0.04 0.05 0.06 0.06 0.06 0.05 0.04 0.03 0.03 0.03 0.03 0.03 0.02 0.01 0.01 0.00 0.01 0.03 0.07 0.10 0.08 0.05 0.06 0.07 0.12 0.18 0.22 0.28 0.32
0.22 0.21 0.18 0.16 0.16 0.16 0.14 0.10 0.06 0.04 0.03 0.03 0.03 0.04 0.04 0.04 0.05 0.04 0.04 0.03 0.03 0.02 0.02 0.02 0.02 0.02 0.02 0.00 0.00 0.00 0.01 0.04 0.08 0.10 0.07 0.04 0.03 0.05 0.08 0.11 0.16 0.21 0.30
0.18 0.16 0.15 0.17 0.20 0.19 0.16 0.11 0.07 0.04 0.02 0.02 0.03 0.03 0.03 0.03 0.03 0.03 0.03 0.03 0.02 0.02 0.02 0.02 0.01 0.02 0.01 0.00 0.00 0.00 0.01 0.04 0.06 0.06 0.05 0.04 0.05 0.07 0.09 0.11 0.17 0.27 0.34
0.14 0.16 0.19 0.23 0.24 0.21 0.14 0.08 0.04 0.02 0.02 0.02 0.02 0.02 0.01 0.01 0.01 0.02 0.02 0.02 0.02 0.02 0.02 0.01 0.01 0.01 0.01 0.00 0.00 0.00 0.01 0.02 0.02 0.03 0.04 0.06 0.09 0.09 0.16 0.22 0.32 0.48 0.62
0.13 0.19 0.24 0.24 0.20 0.14 0.08 0.04 0.03 0.02 0.01 0.01 0.01 0.00 0.00 0.00 0.01 0.01 0.02 0.02 0.02 0.02 0.01 0.01 0.01 0.01 0.01 0.00 0.00 0.00 0.01 0.01 0.01 0.02 0.05 0.09 0.14 0.15 0.26 0.33 0.45 0.64 0.78
0.19 0.23 0.22 0.18 0.12 0.07 0.05 0.04 0.03 0.02 0.01 0.00 0.00 0.00 0.00 0.00 0.00 0.01 0.02 0.02 0.01 0.01 0.01 0.01 0.01 0.01 0.01 0.00 0.00 0.00 0.01 0.02 0.03 0.05 0.09 0.14 0.21 0.21 0.32 0.48 0.59 0.80 0.89
0.24 0.23 0.19 0.12 0.06 0.03 0.02 0.02 0.02 0.01 0.00 0.00 0.01 0.01 0.00 0.00 0.00 0.01 0.01 0.01 0.01 0.01 0.00 0.01 0.01 0.01 0.01 0.01 0.00 0.00 0.01 0.02 0.04 0.11 0.19 0.23 0.25 0.28 0.45 0.58 0.76 1.00 1.04
0.21 0.16 0.11 0.06 0.03 0.01 0.01 0.01 0.01 0.00 0.00 0.00 0.01 0.00 0.00 0.00 0.00 0.00 0.00 0.00 0.00 0.00 0.00 0.01 0.01 0.01 0.01 0.01 0.01 0.01 0.01 0.02 0.05 0.14 0.29 0.32 0.29 0.44 0.64 0.85 1.00 1.10 1.00
0.10 0.06 0.03 0.02 0.01 0.00 0.00 0.00 0.00 0.00 0.00 0.00 0.00 0.00 0.00 0.00 0.00 0.00 0.00 0.00 0.00 0.00 0.01 0.01 0.02 0.02 0.02 0.02 0.02 0.03 0.03 0.04 0.06 0.11 0.24 0.35 0.41 0.57 0.80 0.97 1.04 1.03 0.94
0.03 0.01 0.01 0.01 0.00 0.00 0.00 0.00 0.00 0.00 0.00 0.00 0.00 0.00 0.00 0.00 0.00 0.00 0.00 0.00 0.00 0.01 0.01 0.03 0.03 0.04 0.04 0.03 0.04 0.06 0.07 0.08 0.10 0.13 0.18 0.26 0.38 0.55 0.72 0.83 0.85 0.81 0.76
0.01 0.01 0.00 0.00 0.00 0.00 0.00 0.00 0.00 0.00 0.00 0.00 0.00 0.00 0.00 0.00 0.00 0.00 0.00 0.00 0.00 0.00 0.01 0.02 0.03 0.03 0.03 0.02 0.02 0.04 0.06 0.09 0.13 0.15 0.23 0.35 0.47 0.61 0.70 0.74 0.73 0.66 0.60